Back to catalog

STARLINK-3273

AliveCommunicationsVLEO
NORAD 50191·PAYLOAD·🇺🇸 United States

Launched Dec 18, 2021 from Vandenberg Space Force Base

Loading…

Next Passes (next 24 hours)

TLE

FreshSource: CelesTrak SupGP

Epoch: Sep 14, 2026, 14:27 UTC

1 50191C 21125AM  26257.60256944  .00026610  00000+0  78628-3 0  2570
2 50191  53.1575 118.9330 0001389  94.5638 260.0381 15.34374377    10

Track STARLINK-3273 in real time with AllMySat

Download on the App Store